Diretta Meteo Roma Fiumicino, Italiamartedì 25 giugno ore 23:50

Mappa
Sereno 24 °C Sereno 24 Ore: T.min 21 T.max 31
Ponente Sud-Est Km/h 9.3 Punto di rugiada: 21 °C Umidità: 83% Visibilità: 10 Km
Il sole sorge alle: 05:35 Il sole tramonta alle: 20:51
25 Giugno 2019 23:50 tempo osservato: Sereno Sereno 24 83 1019 vento: Nord SE 9.3
25 Giugno 2019 23:20 tempo osservato: Sereno Sereno 24 88 1019 vento: Nord SE 9.3
25 Giugno 2019 22:50 tempo osservato: Sereno Sereno 25 83 1019 vento: Nord S 7.4
25 Giugno 2019 22:20 tempo osservato: Sereno Sereno 25 83 1019 vento: Nord S 7.4
25 Giugno 2019 21:50 tempo osservato: Sereno Sereno 26 73 1019 vento: Nord SO 9.3
25 Giugno 2019 21:20 tempo osservato: Sereno Sereno 26 73 1018 vento: Nord SO 11.1
25 Giugno 2019 20:50 tempo osservato: Sereno Sereno 26 73 1018 vento: Nord SO 13
25 Giugno 2019 20:20 tempo osservato: Sereno Sereno 27 69 1018 vento: Nord SO 13
25 Giugno 2019 19:50 tempo osservato: Sereno Sereno 27 69 1018 vento: Nord SO 16.7
25 Giugno 2019 19:20 tempo osservato: Sereno Sereno 28 61 1018 vento: Nord O/SO 16.7
25 Giugno 2019 18:50 tempo osservato: Sereno Sereno 29 54 1018 vento: Nord O/SO 16.7
25 Giugno 2019 18:20 tempo osservato: Sereno Sereno 29 54 1018 vento: Nord O 18.5
25 Giugno 2019 17:50 tempo osservato: Sereno Sereno 29 54 1018 vento: Nord O 18.5
25 Giugno 2019 17:20 tempo osservato: Sereno Sereno 28 65 1018 vento: Nord O 16.7
25 Giugno 2019 16:50 tempo osservato: Sereno Sereno 29 54 1018 vento: Nord O 16.7
25 Giugno 2019 16:20 tempo osservato: Sereno Sereno 30 45 1018 vento: Nord O 18.5
25 Giugno 2019 15:50 tempo osservato: Sereno Sereno 30 51 1018 vento: Nord O 16.7
25 Giugno 2019 15:20 tempo osservato: Sereno Sereno 30 48 1018 vento: Nord O/SO 18.5
25 Giugno 2019 14:50 tempo osservato: Sereno Sereno 30 48 1018 vento: Nord O/SO 18.5
25 Giugno 2019 14:20 tempo osservato: Sereno Sereno 30 48 1018 vento: Nord O/SO 18.5
25 Giugno 2019 13:50 tempo osservato: Sereno Sereno 31 45 1019 vento: Nord O 16.7
25 Giugno 2019 13:20 tempo osservato: Sereno Sereno 30 48 1019 vento: Nord O/SO 18.5
25 Giugno 2019 12:50 tempo osservato: Sereno Sereno 31 45 1018 vento: Nord O/SO 18.5
25 Giugno 2019 12:20 tempo osservato: Sereno Sereno 31 45 1018 vento: Nord SO 18.5
25 Giugno 2019 11:50 tempo osservato: Sereno Sereno 30 45 1019 vento: Nord O/SO 16.7
25 Giugno 2019 11:20 tempo osservato: Sereno Sereno 31 43 1019 vento: Nord O 9.3
25 Giugno 2019 10:50 tempo osservato: Sereno Sereno 30 42 1019 vento: Nord N 5.5
25 Giugno 2019 10:20 tempo osservato: Sereno Sereno 30 40 1019 vento: Nord N 5.5
25 Giugno 2019 09:50 tempo osservato: Sereno Sereno 29 42 1018 vento: Nord NE 9.3
25 Giugno 2019 09:20 tempo osservato: Sereno Sereno 29 45 1018 vento: Nord NE 9.3
25 Giugno 2019 08:50 tempo osservato: Sereno Sereno 28 48 1018 vento: Nord NE 11.1
25 Giugno 2019 08:20 tempo osservato: Sereno Sereno 26 54 1018 vento: Nord NE 13
25 Giugno 2019 07:50 tempo osservato: Sereno Sereno 25 57 1018 vento: Nord E/NE 11.1
25 Giugno 2019 07:20 tempo osservato: Sereno Sereno 24 57 1018 vento: Nord E/NE 9.3
25 Giugno 2019 06:50 tempo osservato: Sereno Sereno 23 64 1017 vento: Nord NE 7.4
25 Giugno 2019 06:20 tempo osservato: Sereno Sereno 22 64 1017 vento: Nord E/NE 9.3
25 Giugno 2019 05:50 tempo osservato: Sereno Sereno 22 64 1017 vento: Nord E/NE 13
25 Giugno 2019 05:20 tempo osservato: Sereno Sereno 22 64 1017 vento: Nord E/NE 9.3
25 Giugno 2019 04:50 tempo osservato: Sereno Sereno 21 68 1017 vento: Nord N 5.5
25 Giugno 2019 04:20 tempo osservato: Sereno Sereno 21 73 1017 vento: Nord NE 9.3
25 Giugno 2019 03:50 tempo osservato: Sereno Sereno 22 68 1017 vento: Nord E/NE 9.3
25 Giugno 2019 03:20 tempo osservato: Sereno Sereno 21 73 1017 vento: Nord NE 9.3
25 Giugno 2019 02:50 tempo osservato: Sereno Sereno 21 73 1017 vento: Nord NE 9.3
25 Giugno 2019 02:20 tempo osservato: Sereno Sereno 21 73 1017 vento: Nord N 3.7
25 Giugno 2019 01:50 tempo osservato: Sereno Sereno 22 68 1017 vento: Nord N 5.5
25 Giugno 2019 01:20 tempo osservato: Sereno Sereno 22 68 1017 vento: Nord N 5.5
25 Giugno 2019 00:50 tempo osservato: Sereno Sereno 24 57 1017 vento: Nord N/NE 7.4